Location: Six Mile Lake
(44.9000°N, 79.7170°W)
Time: 06:42:40
(UTC-04:00)

STRAND 1 - Visible Passes

Search period start: 30 June 2022 00:00
Search period end: 10 July 2022 00:00
Orbit: 768 x 780 km, 98.4° (Epoch: 29 June)

Date Brightness Start Highest point End Pass type
(mag) Time Alt. Az. Time Alt. Az. Time Alt. Az.
01 Jul ? 22:26:35 10° NW 22:27:37 11° NW 22:28:40 10° WNW visible
02 Jul ? 21:50:17 10° NNW 21:53:56 20° WNW 21:57:35 10° WSW visible
04 Jul ? 22:22:46 10° NW 22:24:17 11° NW 22:25:50 10° WNW visible
05 Jul ? 21:46:48 10° NNW 21:50:36 21° WNW 21:54:21 10° WSW visible
07 Jul ? 22:19:04 10° NNW 22:20:58 12° NW 22:22:51 10° WNW visible
08 Jul ? 21:43:20 10° NNW 21:47:14 22° WNW 21:51:07 10° WSW visible
